Flag for U.S.A. Weather past 2 weeks in Winder, Georgia, U.S.A.

Now
81 °F

Passing clouds.


Feels Like: 86 °F
Forecast: 75 / 91 °F
Wind: No wind

Location: Winder-Barrow Airport

Current Time: Jul 29, 2015 at 1:29:34 AM

Latest Report: Jul 29, 2015 at 12:55 AM


Visibility: 10 mi

Pressure: 30.04 "Hg

Humidity: 84%

Dew point: 75 °F

Location of WinderLocation

Historic Weather in Winder — Graph

°F

Winder temperature yesterday

Maximum temperature yesterday: 99 °F (at 5:15 PM)
Minimum temperature yesterday: 73 °F (at 6:15 AM)
Average temperature yesterday: 84 °F

Past Weeks' High & Low Weather Summary

 TemperatureHumidityPressure
High99 °F (Jul 28, 5:15 PM)100% (Jul 14, 9:15 PM)30.12 "Hg (Jul 14, 9:15 PM)
Low72 °F (Jul 14, 9:15 PM)42% (Jul 28, 5:15 PM)29.81 "Hg (Jul 14, 6:15 PM)
Average83 °F77%29.99 "Hg
* Reported Jul 14 12:15 AM — Jul 29 12:15 AM, Winder, Weather by CustomWeather, © 2015

Note: Actual official high and low records may vary slightly from our data, if they occured in-between our weather recording intervals... More about our weather records

Advertising

Winder weather history for previous 24 hours

 ConditionsComfort  
Time TempWeatherWind HumidityBarometerVisibility
12:15 AM
Wed, Jul 29
81 °FPassing clouds.No wind84%30.03 "Hg10 mi
11:55 PM
Tue, Jul 28
81 °FClear.No wind84%30.03 "Hg10 mi
11:15 PM81 °FClear.No wind84%30.03 "Hg10 mi
10:55 PM81 °FClear.No wind84%30.03 "Hg10 mi
10:35 PM81 °FClear.No wind79%30.03 "Hg10 mi
10:15 PM82 °FClear.No wind74%30.02 "Hg10 mi
9:55 PM82 °FClear.No wind74%30.01 "Hg10 mi
9:35 PM82 °FSunny.No wind74%30.01 "Hg10 mi
8:55 PM86 °FBroken clouds.7 mph75%30.01 "Hg10 mi
8:35 PM88 °FSunny.No wind70%30.01 "Hg10 mi
8:15 PM90 °FSunny.No wind67%30.00 "Hg10 mi
7:55 PM90 °FSunny.No wind67%29.99 "Hg10 mi
7:35 PM90 °FSunny.No wind67%29.99 "Hg10 mi
7:15 PM90 °FSunny.No wind67%29.98 "Hg10 mi
6:55 PM91 °FScattered clouds.3 mph63%29.98 "Hg10 mi
6:15 PM93 °FScattered clouds.5 mph56%29.98 "Hg10 mi
5:55 PM97 °FSunny.No wind42%29.98 "Hg10 mi
5:15 PM99 °FScattered clouds.6 mph42%29.98 "Hg10 mi
4:55 PM97 °FSunny.7 mph44%29.98 "Hg10 mi
4:35 PM97 °FSunny.3 mph44%29.98 "Hg10 mi
4:15 PM97 °FScattered clouds.5 mph47%29.99 "Hg10 mi
3:55 PM97 °FPartly sunny.No wind47%30.00 "Hg10 mi
3:35 PM95 °FBroken clouds.No wind50%30.01 "Hg10 mi
3:15 PM95 °FScattered clouds.3 mph50%30.01 "Hg10 mi
2:55 PM95 °FScattered clouds.No wind50%30.01 "Hg10 mi
2:15 PM95 °FScattered clouds.No wind50%30.03 "Hg10 mi
1:50 PM91 °FPartly sunny.No wind56%30.04 "Hg10 mi
1:35 PM93 °FScattered clouds.6 mph53%30.04 "Hg10 mi
1:15 PM93 °FScattered clouds.No wind56%30.05 "Hg10 mi
12:55 PM90 °FScattered clouds.No wind59%30.05 "Hg10 mi
12:15 PM91 °FSunny.No wind63%30.06 "Hg10 mi
11:55 AM90 °FSunny.No wind67%30.06 "Hg10 mi
11:35 AM90 °FSunny.3 mph67%30.06 "Hg10 mi
11:15 AM88 °FSunny.No wind70%30.06 "Hg10 mi
10:55 AM88 °FSunny.3 mph70%30.06 "Hg10 mi
10:35 AM86 °FSunny.No wind75%30.06 "Hg10 mi
10:15 AM84 °FSunny.No wind79%30.07 "Hg10 mi
9:55 AM82 °FSunny.No wind84%30.07 "Hg10 mi
9:35 AM81 °FSunny.No wind89%30.07 "Hg10 mi
9:15 AM81 °FSunny.No wind84%30.07 "Hg10 mi
8:55 AM79 °FSunny.No wind89%30.07 "Hg10 mi
8:35 AM79 °FSunny.No wind89%30.06 "Hg10 mi
8:15 AM77 °FSunny.3 mph94%30.05 "Hg10 mi
7:55 AM75 °FSunny.No wind94%30.05 "Hg10 mi
7:35 AM75 °FClear.No wind94%30.05 "Hg10 mi
7:15 AM73 °FClear.No wind100%30.05 "Hg7 mi
6:55 AM73 °FClear.No wind100%30.04 "Hg7 mi
6:35 AM75 °FClear.No wind94%30.03 "Hg7 mi
6:15 AM73 °FClear.No wind100%30.02 "Hg10 mi
5:55 AM75 °FClear.No wind94%30.02 "Hg10 mi
5:15 AM75 °FClear.No wind94%30.01 "Hg10 mi
4:55 AM77 °FClear.No wind94%30.01 "Hg10 mi
4:35 AM75 °FClear.No wind94%30.01 "Hg10 mi
4:15 AM77 °FClear.No wind94%30.01 "Hg10 mi
3:55 AM75 °FClear.No wind100%30.01 "Hg10 mi
3:35 AM77 °FClear.No wind94%30.02 "Hg10 mi
3:15 AM77 °FClear.No wind94%30.02 "Hg10 mi
2:55 AM77 °FClear.No wind100%30.02 "Hg10 mi
2:35 AM79 °FClear.3 mph94%30.03 "Hg10 mi
2:15 AM79 °FClear.No wind94%30.03 "Hg10 mi
1:55 AM79 °FClear.No wind94%30.04 "Hg10 mi
1:15 AM79 °FClear.No wind94%30.04 "Hg10 mi
Weather by CustomWeather, © 2015

See weather overviewHow to use our weather pages